Location: Étang Rond
(42.7927°N, 1.0661°E)
Time: 01:39:22
(UTC+00:00)

Cosmos 921 Rocket - Pass Details

Date: 08 November 2025
Orbit: 563 x 621 km, 75.8° (Epoch: 07 December)

Event Time Altitude Azimuth Distance (km) Brightness Sun altitude
Exits shadow 05:16:52 23° 252° (WSW) 1,334 4.2 -15.3°
Drops below altitude 10° 05:19:51 10° 210° (SSW) 1,980 5.4 -14.8°
Sets 05:22:25 0° 196° (SSW) 2,875 6.4 -14.3°
